Newton, KS

3:51 PM CST on December 08, 2019 (GMT -0600)
Newton City County

Weather History for KEWK - October, 2019

Change the Weather History Date:

Tuesday, October 1, 2019

  Actual Average Record
Temperature  
Mean Temperature 80 °F -  
Max Temperature 88 °F 71 °F 93 °F (2006)
Min Temperature 71 °F 50 °F 39 °F (2003)
Cooling Degree Days 14    
Growing Degree Days 30 (Base 50)    
Moisture  
Dew Point 70 °F    
Average Humidity 79    
Maximum Humidity 96    
Minimum Humidity 55    
Precipitation  
Precipitation 0.19 in - - ()
Sea Level Pressure  
Sea Level Pressure 29.85 in    
Wind  
Wind Speed 19 mph (SSW)    
Max Wind Speed 31 mph    
Max Gust Speed 41 mph    
Visibility 9 miles    
Events      
Averages and records for this station are not official NWS values.
T = Trace of Precipitation, MM = Missing Value Source: NWS Daily Summary

Daily Weather History Graph

Daily Weather History Graph

Search for Another Location

Airport or City:

Astronomy

Oct. 01, 2019 Rise Set
Actual Time 7:24 AM CDT 7:12 PM CDT
Civil Twilight 6:58 AM CDT 7:38 PM CDT
Nautical Twilight 6:27 AM CDT 8:09 PM CDT
Astronomical Twilight 5:57 AM CDT 8:39 PM CDT
Moon 10:39 AM CDT (10/1) 9:29 PM CDT (10/1)
Length of Visible Light 12h 40m
Length of Day
11h 47m
Waxing Crescent, 12% of the Moon is Illuminated
Oct 1
Waxing Crescent
Oct 5
First Quarter
Oct 13
Full
Oct 21
Last Quarter
Oct 27
New

Hourly Weather History & Observations

Time (CDT) Temp. Heat Index Dew Point Humidity Pressure Visibility Wind Dir Wind Speed Gust Speed Precip Events Conditions
12:56 AM 75.0 °F - 70.0 °F 84% 29.85 in 10.0 mi South 19.6 mph 26.5 mph N/A   Clear
1:56 AM 75.0 °F - 70.0 °F 84% 29.85 in 10.0 mi South 18.4 mph 25.3 mph N/A   Clear
2:56 AM 75.0 °F - 69.1 °F 82% 29.85 in 10.0 mi South 17.3 mph 27.6 mph N/A   Clear
3:56 AM 75.0 °F - 69.1 °F 82% 29.85 in 10.0 mi South 18.4 mph 26.5 mph N/A   Clear
4:56 AM 75.0 °F - 68.0 °F 79% 29.86 in 10.0 mi South 23.0 mph - N/A   Clear
5:56 AM 75.0 °F - 69.1 °F 82% 29.87 in 10.0 mi South 17.3 mph 25.3 mph N/A   Clear
6:56 AM 75.0 °F - 69.1 °F 82% 29.88 in 10.0 mi South 18.4 mph 24.2 mph N/A   Clear
7:56 AM 75.0 °F - 69.1 °F 82% 29.88 in 10.0 mi SSW 18.4 mph - N/A   Clear
8:56 AM 78.1 °F - 70.0 °F 76% 29.88 in 10.0 mi SSW 20.7 mph 26.5 mph N/A   Clear
9:56 AM 80.1 °F 83.6 °F 71.1 °F 74% 29.88 in 10.0 mi SSW 26.5 mph 32.2 mph N/A   Clear
10:56 AM 81.0 °F 84.9 °F 71.1 °F 72% 29.89 in 10.0 mi SSW 24.2 mph 31.1 mph N/A   Partly Cloudy
11:56 AM 84.0 °F 89.0 °F 71.1 °F 65% 29.88 in 10.0 mi SSW 25.3 mph 32.2 mph N/A   Partly Cloudy
12:56 PM 87.1 °F 92.8 °F 71.1 °F 59% 29.86 in 10.0 mi SSW 27.6 mph 35.7 mph N/A   Mostly Cloudy
1:56 PM 86.0 °F 91.5 °F 71.1 °F 61% 29.83 in 10.0 mi SSW 27.6 mph 33.4 mph N/A   Overcast
2:56 PM 86.0 °F 90.7 °F 70.0 °F 59% 29.81 in 10.0 mi SSW 27.6 mph 34.5 mph N/A   Mostly Cloudy
3:56 PM 88.0 °F 92.9 °F 70.0 °F 55% 29.77 in 10.0 mi South 27.6 mph 34.5 mph N/A   Partly Cloudy
4:56 PM 86.0 °F 90.1 °F 69.1 °F 57% 29.77 in 10.0 mi South 31.1 mph 39.1 mph N/A   Clear
5:56 PM 84.0 °F 87.8 °F 69.1 °F 61% 29.78 in 10.0 mi South 24.2 mph 35.7 mph N/A   Overcast
6:17 PM 73.4 °F - 69.8 °F 88% 29.87 in 1.8 mi SW 24.2 mph 41.4 mph 0.03 in   Overcast
6:26 PM 71.6 °F - 66.2 °F 83% 29.88 in 2.5 mi WSW 20.7 mph 29.9 mph 0.05 in   Overcast
6:41 PM 71.6 °F - 69.8 °F 94% 29.88 in 1.5 mi WSW 16.1 mph 24.2 mph 0.13 in   Overcast
6:56 PM 71.1 °F - 69.1 °F 93% 29.84 in 8.0 mi WSW 15.0 mph 24.2 mph 0.15 in   Overcast
7:56 PM 71.1 °F - 68.0 °F 90% 29.86 in 10.0 mi SW 8.1 mph - 0.01 in   Overcast
8:56 PM 71.1 °F - 69.1 °F 93% 29.86 in 10.0 mi South 5.8 mph - 0.01 in   Overcast
9:56 PM 71.1 °F - 70.0 °F 96% 29.88 in 10.0 mi West 4.6 mph - N/A   Overcast
10:56 PM 71.1 °F - 70.0 °F 96% 29.87 in 10.0 mi Calm Calm - 0.02 in   Overcast
11:56 PM 71.1 °F - 70.0 °F 96% 29.88 in 10.0 mi Calm Calm - N/A   Overcast